{"data":{"norad_id":67820,"epoch":"2026-09-19T18:26:35.412288Z","epoch_age_seconds":129684,"freshness":"FRESH","line1":"1 67820U 26032Z   26262.76846542  .00015813  00000+0  49103-3 0  9993","line2":"2 67820  97.2855  89.1923 0001647  77.4365 282.7062 15.33449807 34708","mean_motion":15.33449807,"eccentricity":0.0001647,"inclination_deg":97.2855,"raan_deg":89.1923,"arg_perigee_deg":77.4365,"mean_anomaly_deg":282.7062,"bstar":0.00049103,"rev_number":3470,"period_min":93.905910283244,"perigee_km":464.40172049634,"apogee_km":466.65602403467,"semimajor_km":6843.6658722655,"source":"CELESTRAK","updated_at":"2026-09-20T09:00:43.666696Z"}}